Theta_e
302 301 302 302 302 302 302 302 302 302 302 303 304 304 305 305 305 303 300 308 302 296 298 300 300 296 295 297 294 299 301 306 305 301 300 301 300 304 304 309 309 304 300 305 308 302 298 315 313 305 315 321 318 323
301 301 301 301 301 302 302 302 302 302 302 302 303 304 304 304 305 304 298 307 309 299 298 303 303 303 300 299 297 301 298 299 311 307 304 306 304 306 306 299 312 304 306 306 309 307 315 318 320 324 326 320 318 322
300 301 301 302 302 301 302 302 302 303 302 301 302 303 304 304 305 304 300 307 301 297 298 298 297 303 306 304 304 297 301 305 305 309 307 311 306 308 301 304 309 313 313 307 312 315 315 319 319 319 318 320 321 323
300 301 301 301 301 301 301 301 302 301 301 301 302 303 304 304 305 304 300 302 303 298 291 297 308 304 305 306 304 305 305 309 309 307 304 306 304 308 306 305 307 309 314 309 311 316 318 319 320 321 320 321 322 322
299 300 300 301 301 300 301 301 301 301 300 302 302 303 304 304 304 304 303 303 305 297 291 294 301 304 306 306 304 306 307 305 303 302 304 304 311 309 309 308 305 312 308 310 308 318 318 314 319 319 320 320 321 320
299 299 300 300 300 300 301 301 301 301 301 301 302 303 303 303 303 301 296 303 304 304 294 289 304 303 305 304 302 304 304 303 303 302 305 308 312 306 304 301 308 310 313 313 311 317 317 315 323 321 320 320 321 321
299 299 299 300 300 300 300 301 301 301 301 301 301 302 303 303 302 297 295 299 304 304 295 291 295 302 305 304 302 302 306 303 302 302 304 305 307 307 305 299 308 311 313 312 312 312 316 319 316 320 321 321 320 321
299 299 299 299 300 300 300 300 300 300 300 300 300 302 302 302 302 297 302 303 304 302 299 292 294 299 304 298 297 305 300 301 302 300 304 302 305 306 300 307 308 311 314 315 315 314 319 321 321 322 321 320 319 318
300 300 299 299 300 300 300 300 300 300 299 300 299 301 300 299 296 300 305 307 304 300 292 294 291 292 303 299 301 301 303 296 302 297 298 301 302 299 304 307 309 310 312 313 316 317 318 318 319 320 319 319 317 316
300 299 300 300 299 300 300 300 300 300 299 300 299 294 292 300 304 303 298 297 296 297 297 292 297 294 300 298 296 298 299 295 293 296 301 296 296 306 308 310 310 312 313 314 312 311 313 316 318 318 320 320 319 318
300 300 300 300 299 300 300 300 300 299 299 297 293 292 302 303 299 295 291 290 292 290 295 295 296 295 301 296 296 300 295 295 290 294 294 294 294 302 308 308 312 311 312 312 313 314 315 315 319 318 317 319 320 318
300 300 300 300 300 300 300 300 299 297 298 299 297 301 301 295 291 288 288 291 291 288 295 293 294 297 299 304 299 300 295 296 288 298 293 291 298 307 307 308 310 311 311 311 312 312 313 313 314 316 318 318 320 320
300 300 300 300 300 300 300 300 299 298 300 299 295 292 291 291 285 284 283 287 288 293 295 296 294 297 299 301 298 297 291 291 299 293 290 293 303 307 309 308 308 309 310 310 309 310 312 312 313 313 317 319 320 320
300 300 300 300 300 300 300 300 300 300 297 291 289 284 287 286 288 289 291 291 297 297 296 296 296 296 300 295 297 290 295 296 289 287 289 300 306 306 307 307 307 306 308 308 307 307 306 307 311 312 316 319 317 318
300 300 300 299 300 300 299 299 300 302 296 290 291 284 287 291 293 294 295 297 299 301 299 298 298 299 295 292 295 293 290 288 290 290 299 305 306 306 305 306 306 307 308 308 308 307 306 307 308 309 314 319 320 320
301 300 299 300 300 299 299 300 300 299 296 293 292 289 292 292 293 295 296 297 301 300 300 298 292 291 290 293 290 288 288 287 293 299 301 304 304 304 305 305 306 307 308 309 310 311 311 310 310 313 314 316 318 319
300 300 301 301 300 299 299 298 298 294 293 291 291 295 293 294 294 295 297 298 304 298 293 295 289 288 294 291 289 291 291 293 298 300 302 303 304 304 306 305 306 307 307 310 312 313 314 316 315 316 315 319 318 322
296 301 300 300 300 299 299 298 295 293 289 292 290 293 297 297 295 297 298 302 300 298 297 293 297 291 289 287 289 296 297 300 302 302 303 305 305 306 306 305 305 306 307 310 312 313 314 314 314 317 318 320 321 321
299 300 300 300 300 297 295 296 297 289 292 294 296 298 298 298 299 301 301 302 301 302 300 297 291 291 293 297 297 298 300 300 299 301 303 305 306 305 304 305 305 306 307 309 312 313 315 317 316 317 320 321 317 318
301 301 300 300 299 297 293 295 299 293 291 293 297 296 298 298 300 302 301 301 300 299 295 293 293 296 299 297 299 301 302 303 302 299 299 303 305 306 305 305 305 306 306 308 307 303 314 313 316 316 317 310 315 313
296 300 300 299 301 299 296 296 295 295 296 294 298 298 296 299 296 298 298 301 298 295 293 296 299 300 302 302 302 302 302 302 301 301 302 302 304 306 305 306 306 305 306 305 305 305 308 314 315 314 313 314 312 310
301 298 302 302 297 297 296 299 296 297 295 296 296 296 295 294 295 296 299 295 295 297 297 298 299 300 299 299 300 301 302 302 304 303 297 297 301 302 303 304 304 304 304 306 304 306 314 314 315 314 312 311 310 312
299 301 301 298 292 291 290 300 293 294 291 293 296 293 294 294 296 299 294 296 297 298 298 297 297 297 295 297 297 298 299 298 298 300 301 302 302 303 303 304 305 304 304 305 306 311 313 301 304 309 307 308 310 309
294 296 292 292 292 288 294 292 295 294 294 292 291 289 291 293 296 293 290 294 294 296 295 294 292 291 292 292 292 293 295 297 296 298 300 299 299 301 303 304 304 305 306 307 308 313 311 308 302 307 306 304 305 305
289 289 291 286 293 290 288 289 290 291 288 291 290 290 293 297 291 290 288 289 291 291 290 289 288 288 287 288 290 291 295 295 293 294 298 299 299 300 301 303 303 305 306 306 308 310 306 308 307 306 305 305 302 301
285 290 287 289 289 289 290 287 289 289 290 289 290 293 295 291 287 284 287 288 288 288 287 285 285 286 287 289 289 290 293 296 295 293 296 298 299 298 298 299 300 303 306 307 310 307 305 305 304 304 303 299 293 301
285 287 292 297 295 294 292 293 294 291 289 287 289 290 287 283 283 287 290 289 287 288 290 290 290 289 290 292 296 299 301 302 299 299 302 301 301 302 302 300 301 304 306 307 310 307 305 304 303 303 303 303 303 304
292 293 288 293 293 294 289 290 289 287 288 291 290 284 283 282 283 287 286 289 291 293 296 298 298 299 301 300 300 300 301 304 304 303 302 301 303 303 305 306 308 290 308 313 310 309 308 306 304 304 304 304 305 306
293 297 295 291 292 291 290 289 288 289 291 289 286 286 285 286 286 285 287 290 297 296 295 295 297 299 299 301 301 300 300 300 297 294 294 294 297 301 305 306 309 312 311 308 293 303 308 308 308 308 307 307 308 309
292 296 292 291 289 288 290 293 290 292 293 292 291 289 287 289 291 296 297 297 295 295 296 297 298 296 295 295 298 300 301 301 302 300 298 298 301 306 307 309 311 311 311 309 307 302 291 302 300 307 306 307 307 306
297 294 291 291 290 292 294 295 295 295 294 293 295 292 292 294 299 301 301 302 300 299 297 297 297 298 297 294 293 295 295 302 308 308 309 309 310 310 310 310 310 309 308 307 307 305 304 305 308 307 306 306 305 303
296 293 291 289 291 295 296 294 293 292 293 292 292 295 295 294 292 297 300 301 299 297 294 297 297 297 300 301 300 298 292 303 302 310 309 308 308 308 308 308 308 308 309 308 307 306 306 307 307 306 305 304 305 304
294 294 294 293 293 292 294 294 293 292 292 291 292 294 295 293 290 296 302 303 302 300 300 300 301 302 301 301 305 304 297 297 291 288 290 291 293 300 307 308 308 309 309 308 308 308 308 307 306 306 305 305 304 304
Wind_Speed
12 9 8 7 8 8 8 8 10 10 10 8 8 9 10 8 10 7 7 5 5 8 16 21 18 17 14 10 5 12 10 15 16 10 13 13 13 17 20 20 17 7 3 14 14 10 7 8 11 12 5 4 10 17
9 9 8 9 10 10 9 9 11 11 10 9 9 10 11 10 10 9 10 4 5 6 13 22 19 18 20 14 9 4 8 19 9 3 10 6 7 5 6 15 12 13 13 14 8 7 27 16 7 11 10 10 9 16
7 10 9 9 10 7 9 9 10 13 10 9 10 10 10 11 11 11 9 3 4 6 12 16 17 21 18 18 13 9 3 6 11 8 6 4 5 5 3 12 15 23 9 4 5 14 16 18 13 7 11 12 14 16
5 6 9 9 7 7 8 8 8 7 7 9 11 11 11 12 12 11 9 6 3 5 7 7 7 9 15 14 18 15 15 15 12 8 7 6 2 3 2 6 7 7 13 17 10 16 20 17 17 15 17 14 17 14
7 6 6 8 8 7 7 7 7 7 7 8 8 8 9 9 9 8 9 8 7 4 5 11 19 22 16 12 13 11 10 10 10 6 6 7 1 3 2 2 5 8 6 10 1 13 13 5 7 14 15 14 13 12
9 8 7 6 6 6 6 6 7 7 6 8 8 7 5 7 7 7 5 10 9 8 4 6 6 11 11 11 10 10 9 6 6 4 7 6 6 3 1 3 3 8 4 16 8 12 18 16 17 14 14 13 12 13
11 10 9 9 7 6 6 7 8 7 6 3 5 6 6 6 7 5 2 3 10 4 5 6 4 5 12 11 9 7 8 6 5 6 5 3 3 8 2 3 5 8 6 7 18 18 6 18 10 15 14 14 12 13
12 11 11 10 9 8 7 7 8 6 6 5 3 5 6 6 10 8 10 15 10 6 4 6 4 5 8 7 9 7 7 7 5 5 4 5 7 4 3 6 5 12 16 13 15 20 8 13 13 14 14 10 12 12
13 13 11 11 11 9 7 8 6 4 1 4 2 6 3 5 8 7 4 7 7 5 4 6 8 2 5 7 6 3 6 6 5 7 8 4 2 2 8 3 5 6 6 14 12 9 12 14 15 10 10 10 9 10
13 13 14 11 11 9 8 8 8 7 4 4 2 3 5 3 14 6 2 4 5 6 6 8 7 4 6 8 5 5 6 5 4 8 4 7 8 3 5 8 3 3 8 9 11 10 10 15 12 7 5 7 9 6
14 14 13 13 12 10 8 9 7 4 3 3 4 4 3 4 3 3 4 6 7 6 7 9 11 3 3 3 5 3 4 5 5 4 9 8 9 9 9 1 7 2 2 3 3 7 7 8 13 11 10 7 8 9
11 13 12 14 12 11 9 10 8 3 3 4 4 4 1 4 3 5 5 5 8 7 6 13 9 6 2 2 2 2 3 5 5 6 4 10 7 15 16 16 8 4 2 3 3 4 7 7 6 6 10 9 10 10
10 9 13 13 11 10 9 11 10 10 10 2 3 3 3 5 6 7 9 7 6 5 5 9 7 3 4 2 1 2 4 4 3 3 5 5 8 9 13 9 7 2 4 5 5 5 6 6 5 2 8 9 6 12
10 11 14 12 11 8 10 10 11 8 5 2 3 4 5 7 7 4 6 4 2 3 11 8 7 3 2 6 2 3 2 3 4 5 8 7 9 12 10 8 5 4 3 6 8 8 8 8 9 6 6 10 7 4
8 14 12 10 9 9 7 6 6 3 3 4 5 5 8 4 6 5 9 4 2 4 5 6 3 3 4 4 2 1 3 4 6 6 3 6 8 9 9 7 4 2 4 6 6 7 8 9 9 10 10 7 13 9
15 11 8 13 10 7 7 7 4 3 4 4 5 5 5 7 5 5 3 3 2 5 6 4 3 3 3 2 5 3 4 3 3 6 8 5 9 7 6 5 5 5 2 1 4 3 4 10 10 9 9 8 9 9
16 1 14 13 10 9 7 4 4 6 5 4 3 4 6 7 4 3 2 2 1 5 4 3 4 4 4 1 4 3 1 4 4 5 7 8 6 4 5 7 5 4 2 4 5 4 4 4 4 4 4 2 6 7
3 10 14 11 8 5 4 6 4 4 6 5 4 6 4 4 4 2 3 2 3 4 3 3 2 3 2 3 2 6 8 7 9 7 6 6 4 4 6 6 6 5 3 5 3 2 2 1 4 3 2 4 6 6
10 10 10 8 3 2 4 5 5 3 5 3 4 6 1 3 4 4 2 4 4 4 1 2 2 2 1 4 6 5 4 6 7 8 6 6 2 5 4 4 4 5 4 5 6 4 3 6 3 4 4 5 6 7
12 9 8 7 5 4 5 4 3 5 3 1 1 2 2 1 4 2 2 3 4 2 3 3 1 1 6 6 3 2 5 6 8 7 4 4 6 6 3 3 5 3 4 3 5 5 5 4 2 5 5 5 5 7
6 5 9 7 5 7 4 3 3 3 2 3 3 0 2 3 2 1 3 7 5 1 3 3 7 8 2 5 5 7 3 4 0 4 2 2 4 3 5 5 2 3 0 2 1 7 6 5 3 6 4 5 5 5
2 4 3 5 4 4 4 3 3 4 1 5 1 2 3 5 5 6 3 3 2 5 5 8 9 7 5 5 6 8 10 8 7 6 2 7 6 5 4 4 4 4 3 2 0 5 9 8 6 7 7 2 5 9
4 4 3 4 2 2 6 2 3 3 2 3 1 2 1 2 2 1 3 3 7 7 8 8 9 8 8 10 10 10 9 9 8 8 6 5 5 5 4 4 5 5 3 4 3 7 8 9 8 8 6 4 8 9
1 4 4 4 2 3 3 2 3 3 3 3 2 1 3 3 3 3 1 5 5 9 9 10 6 5 4 6 7 7 8 7 8 8 7 6 8 7 6 5 4 5 5 2 6 8 10 7 8 8 9 7 9 11
2 5 2 4 2 4 3 4 4 2 4 7 5 4 4 4 4 5 4 6 9 9 8 6 5 4 5 6 5 6 8 6 7 8 9 9 8 7 6 6 6 6 5 7 9 10 9 7 7 8 10 11 13 13
3 5 4 6 5 4 4 5 6 5 4 5 5 5 5 4 5 4 4 5 5 7 7 7 7 7 7 7 7 6 6 8 8 7 7 9 9 9 9 9 8 8 5 6 10 12 11 9 9 11 9 8 10 14
1 1 1 2 3 3 3 2 2 5 5 6 5 6 5 5 5 3 4 4 5 10 10 9 8 8 8 7 6 6 6 5 11 9 8 9 9 9 8 8 11 7 7 6 11 13 14 12 12 11 11 11 11 13
2 1 2 1 2 6 10 7 7 7 6 6 3 6 5 6 3 3 3 8 10 10 6 5 7 6 3 2 1 2 3 4 7 8 7 6 6 6 9 6 7 3 6 12 12 12 11 13 14 13 13 12 10 9
2 2 2 7 10 6 7 7 5 4 6 5 4 4 3 2 2 3 5 7 7 8 10 9 9 7 6 4 4 5 4 7 12 14 13 8 6 4 5 3 6 9 11 12 9 12 18 13 11 11 11 8 10 11
9 6 11 11 9 6 5 5 3 2 3 3 2 1 2 3 3 4 1 7 11 11 9 7 8 8 8 7 6 6 4 5 7 9 10 9 8 6 5 6 9 11 11 11 11 7 5 3 4 3 3 11 12 10
3 7 10 8 6 6 7 7 5 3 3 3 2 1 2 3 3 7 8 6 8 11 13 13 12 10 10 11 9 9 8 5 10 13 10 8 9 10 9 9 9 9 9 11 10 8 7 7 9 11 15 16 15 13
3 6 7 9 5 5 4 3 3 2 4 5 6 6 6 4 7 8 10 10 10 12 13 12 12 11 11 10 8 8 7 8 8 10 16 10 9 11 10 9 9 9 11 10 9 10 12 12 10 14 14 14 13 14
9 8 7 5 3 4 2 4 3 3 3 3 4 5 4 5 6 6 8 10 11 11 10 6 5 6 9 11 13 10 10 9 11 11 11 10 12 12 11 11 12 12 12 8 8 9 12 16 14 16 16 16 15 14
Wind_Direction
239 248 242 230 246 256 257 256 252 251 267 266 264 272 270 266 248 252 266 254 227 274 277 286 282 282 288 282 298 317 312 205 232 220 228 234 227 218 237 230 209 165 41 227 222 211 211 178 119 155 227 75 90 91
228 235 240 247 245 251 255 252 251 247 258 266 267 277 256 256 258 241 267 249 257 245 285 304 291 279 274 280 312 326 295 296 322 315 235 291 272 247 246 217 222 179 166 232 292 248 143 179 160 116 140 136 134 114
240 237 239 265 234 236 245 260 250 245 249 260 266 276 256 257 255 231 272 324 310 282 271 252 255 249 239 245 236 245 227 293 316 329 309 306 288 27 268 269 215 205 209 192 219 122 130 112 78 56 318 134 122 115
236 249 244 243 241 235 256 254 239 233 257 262 269 265 257 261 255 233 264 273 225 257 276 297 324 230 231 227 224 236 264 283 301 290 287 282 319 303 59 298 311 23 186 192 235 153 121 137 150 172 190 116 120 125
242 252 245 231 229 240 257 253 238 250 267 271 275 271 265 264 233 253 262 257 213 236 298 304 305 278 269 205 232 239 254 277 288 297 299 302 14 351 63 53 348 2 10 277 117 124 115 127 174 168 131 121 123 135
233 239 243 236 228 242 255 252 245 255 269 276 276 269 272 297 230 251 269 225 236 224 274 290 303 245 200 208 207 231 239 257 258 302 317 272 128 22 159 102 121 309 187 24 37 321 141 151 210 118 118 122 124 117
227 236 238 242 236 239 253 257 253 251 256 254 291 271 239 257 247 231 289 289 319 343 249 258 263 228 205 184 196 209 225 243 253 272 232 272 338 218 145 108 154 200 242 110 63 30 352 113 112 105 109 106 117 120
227 229 231 235 237 238 248 260 249 236 254 212 292 298 295 302 280 260 233 209 243 258 263 267 260 238 199 181 193 193 194 214 219 264 248 244 261 322 11 128 133 340 178 167 151 154 204 77 90 105 104 129 116 123
227 220 223 230 235 232 244 247 230 205 240 210 331 326 293 229 237 253 74 176 205 239 282 272 266 198 239 223 184 239 199 201 223 217 239 278 268 239 19 308 170 153 302 110 115 100 106 123 104 94 129 119 122 120
229 227 219 219 226 228 238 218 234 198 245 249 81 222 217 198 107 63 245 215 208 203 226 255 285 259 276 209 171 199 197 215 226 209 233 212 248 182 280 32 112 299 73 99 124 127 125 123 123 106 101 94 113 121
225 224 223 209 215 219 226 210 196 188 234 215 213 228 73 143 150 202 232 206 200 219 219 225 239 227 284 285 217 17 268 208 217 215 211 199 217 176 150 289 286 349 59 61 58 124 124 125 134 145 152 155 141 135
225 214 215 204 207 213 223 193 175 168 229 325 322 295 169 199 192 229 209 207 216 219 213 203 207 182 223 58 296 346 279 315 216 176 211 234 227 171 183 182 170 230 201 169 142 104 87 90 62 94 132 147 147 139
217 225 203 195 200 210 203 181 178 237 284 257 214 244 203 188 214 226 203 207 199 206 145 127 181 122 147 82 263 276 247 236 303 275 216 248 184 169 139 139 122 213 241 247 215 203 181 153 128 282 144 147 145 136
210 190 178 183 190 211 195 186 212 246 228 240 226 212 232 207 225 223 299 319 346 205 170 164 142 145 142 193 186 243 286 281 246 214 225 138 111 110 128 135 146 169 266 238 225 209 204 197 165 205 224 125 70 293
209 163 164 175 189 181 194 191 189 245 260 244 222 239 223 279 258 135 221 196 294 69 84 100 101 152 152 186 187 324 218 244 248 207 72 114 120 120 114 121 122 142 226 245 225 190 180 184 186 205 229 194 171 174
137 133 184 153 176 186 184 198 212 216 243 247 242 272 336 298 309 327 34 132 131 115 108 96 180 172 162 182 178 214 223 207 331 100 103 77 91 92 123 140 79 72 356 218 230 147 223 194 187 181 194 221 190 168
174 350 145 157 170 188 216 244 192 218 236 244 249 257 232 253 269 291 337 54 166 176 156 192 198 149 125 154 207 183 330 115 84 78 84 95 99 86 113 121 119 105 109 40 46 26 22 336 34 113 140 144 184 152
272 139 147 156 193 191 213 215 252 253 244 241 283 303 269 290 280 248 219 125 194 183 194 218 186 182 191 205 118 141 130 130 116 108 113 123 96 88 103 104 107 106 106 112 134 100 302 199 92 78 138 134 109 127
129 139 157 173 212 271 236 207 220 277 253 255 232 248 228 188 171 267 201 184 193 207 262 266 230 206 73 59 70 93 160 141 124 119 129 140 132 113 109 101 97 96 69 60 130 130 87 75 101 133 135 145 142 130
107 135 171 199 224 262 253 207 208 262 317 138 289 358 313 180 135 160 162 183 188 196 248 226 105 59 102 124 117 229 79 116 131 140 179 196 188 174 214 285 87 114 153 146 117 133 123 126 110 106 93 55 153 153
184 165 211 216 219 228 268 303 268 269 10 344 308 180 129 94 72 172 210 202 185 62 1 345 93 104 311 45 25 17 82 4 234 178 158 194 189 188 169 186 222 290 308 120 15 124 148 129 122 92 85 75 331 90
182 236 268 205 255 239 248 261 261 310 20 242 223 191 175 163 189 206 249 236 147 41 59 47 50 25 350 3 354 350 336 335 311 307 207 174 244 166 177 200 211 240 178 157 267 29 99 109 107 101 114 87 194 104
256 211 241 245 322 10 263 353 341 273 307 310 12 331 331 36 68 336 251 78 71 39 21 22 5 349 320 310 302 282 268 269 267 260 257 259 257 264 272 197 201 246 234 155 179 97 99 106 109 106 100 70 112 115
108 304 330 320 248 278 310 278 313 314 270 243 276 312 56 0 306 255 235 59 26 352 358 359 339 312 295 270 258 253 246 228 233 243 246 234 233 228 232 244 245 240 263 261 127 113 109 107 123 126 127 119 117 113
16 327 338 303 309 305 335 4 320 294 345 16 349 14 14 352 351 28 28 352 341 340 333 319 296 268 263 269 257 249 242 216 212 217 218 217 209 228 227 216 229 245 223 263 118 113 122 129 126 134 139 128 118 111
38 34 20 3 359 344 340 327 7 0 347 9 22 360 2 29 30 28 349 327 301 301 296 289 283 281 263 237 251 244 228 198 197 207 201 201 203 198 201 198 202 220 195 244 120 129 137 131 131 134 128 119 117 130
70 48 41 262 274 312 340 295 348 29 30 23 3 5 29 12 13 353 314 309 296 298 293 281 260 246 249 253 240 240 227 191 181 192 182 185 182 194 195 200 202 190 199 209 135 139 141 139 143 142 137 140 150 171
17 4 32 48 77 38 26 28 31 23 12 351 356 31 33 1 314 309 282 294 302 303 321 356 8 354 8 55 45 121 104 119 132 114 119 147 168 193 211 228 198 88 174 122 124 127 133 136 142 148 169 175 196 165
6 278 197 95 63 57 34 30 34 32 350 0 24 38 355 282 265 259 287 300 324 0 13 1 5 6 16 56 60 81 96 121 131 132 134 130 153 194 213 206 139 113 111 117 100 124 133 146 166 175 162 139 130 112
48 51 63 53 56 53 34 51 66 34 8 19 76 207 271 256 265 269 342 7 16 8 359 11 27 29 14 15 81 101 115 118 129 132 130 141 151 166 165 136 122 114 115 121 122 110 73 105 111 174 282 124 114 127
77 80 78 76 69 82 96 98 91 75 21 3 354 309 0 320 3 7 2 16 36 21 16 26 38 27 28 31 25 42 46 32 119 119 116 118 116 95 97 97 103 111 118 120 131 144 156 173 186 200 159 135 135 139
88 77 85 91 103 119 110 89 86 59 27 16 11 6 42 36 32 3 356 1 36 39 20 23 22 24 25 36 44 53 49 63 56 87 90 90 100 101 100 104 108 112 119 131 151 160 174 203 153 114 109 126 121 118
100 105 119 105 88 96 135 129 112 107 71 51 4 344 47 56 48 7 347 16 16 53 59 23 4 14 21 29 56 66 61 68 62 61 70 73 78 91 97 96 102 108 121 158 173 179 215 139 134 131 135 127 134 137